Location: Unspecified
(0.0000°N, 0.0000°E)
Time: 11:17:59
(UTC+00:00)

Tiros 1 despin weight - Pass Details

Date: 28 November 2019
Orbit: 594 x 642 km, 48.2° (Epoch: 13 December)

Event Time Altitude Azimuth Distance (km) Brightness Sun altitude
Rises 06:24:14 0° 216° (SW) 2,897 ? 8.5°
Reaches altitude 10° 06:26:34 10° 214° (SW) 1,981 ? 9.0°
Maximum altitude 06:31:07 75° 128° (SE) 633 ? 10.1°
Drops below altitude 10° 06:35:34 10° 44° (NE) 1,943 ? 11.1°
Sets 06:37:50 0° 42° (NE) 2,836 ? 11.6°
